Aurora, IL

10:21 AM CDT on August 16, 2017 (GMT -0500)
Aurora Municipal

Weather History for KARR - December, 2012

Change the Weather History Date:

Monday, December 17, 2012

  Actual Average Record
Temperature  
Mean Temperature 34 °F 24 °F  
Max Temperature 37 °F 32 °F 52 °F (2006)
Min Temperature 30 °F 17 °F -4 °F (2000)
Degree Days  
Heating Degree Days 31 41  
Month to date heating degree days 429 645  
Since 1 July heating degree days 1936 2059  
Cooling Degree Days 0 0  
Month to date cooling degree days 0 0  
Year to date cooling degree days 1007 655  
Moisture  
Dew Point 31 °F    
Average Humidity 87    
Maximum Humidity 92    
Minimum Humidity 82    
Precipitation  
Precipitation 0.00 in 0.05 in 0.07 in (2011)
Month to date precipitation 0.67 1.29  
Year to date precipitation 23.20 36.19  
Sea Level Pressure  
Sea Level Pressure 29.73 in    
Wind  
Wind Speed 5 mph (NW)    
Max Wind Speed 9 mph    
Max Gust Speed 13 mph    
Visibility 6 miles    
Events      
T = Trace of Precipitation, MM = Missing Value Source: NWS Daily Summary

Daily Weather History Graph

Daily Weather History Graph

Search for Another Location

Airport or City:

Trip Planner

Search our weather history database for the weather conditions in past years. The results will help you decide how hot, cold, wet, or windy it might be!

Date:

Astronomy

Dec. 17, 2012 Rise Set
Actual Time 7:15 AM CST 4:24 PM CST
Civil Twilight 6:44 AM CST 4:56 PM CST
Nautical Twilight 6:09 AM CST 5:31 PM CST
Astronomical Twilight 5:35 AM CST 6:05 PM CST
Moon 10:20 AM CST (12/17) 9:50 PM CST (12/17)
Length of Visible Light 10h 12m
Length of Day
9h 08m
Waxing Crescent, 25% of the Moon is Illuminated
Dec 17
Waxing Crescent
Dec 19
First Quarter
Dec 28
Full
Jan 4
Last Quarter
Jan 11
New

Hourly Weather History & Observations

Time (CST) Temp. Windchill Dew Point Humidity Pressure Visibility Wind Dir Wind Speed Gust Speed Precip Events Conditions
12:52 AM 37.0 °F 33.3 °F 34.0 °F 89% 29.74 in 7.0 mi West 4.6 mph - N/A   Overcast
1:52 AM 37.0 °F 32.4 °F 34.0 °F 89% 29.75 in 7.0 mi West 5.8 mph - N/A   Overcast
2:52 AM 37.0 °F 32.4 °F 34.0 °F 89% 29.74 in 6.0 mi NW 5.8 mph - N/A   Overcast
3:52 AM 36.0 °F 30.3 °F 33.1 °F 89% 29.75 in 7.0 mi West 6.9 mph - N/A   Overcast
4:52 AM 36.0 °F 31.1 °F 33.1 °F 89% 29.75 in 7.0 mi NNW 5.8 mph - N/A   Overcast
5:52 AM 36.0 °F - 33.1 °F 89% 29.74 in 7.0 mi Calm Calm - N/A   Overcast
6:52 AM 36.0 °F 32.1 °F 33.1 °F 89% 29.74 in 7.0 mi WNW 4.6 mph - N/A   Overcast
7:52 AM 35.1 °F 28.6 °F 32.0 °F 89% 29.74 in 6.0 mi NW 8.1 mph - N/A   Overcast
8:52 AM 35.1 °F - 30.9 °F 85% 29.74 in 6.0 mi Calm Calm - N/A   Overcast
9:25 AM 35.6 °F 30.7 °F 30.2 °F 81% 29.72 in 6.0 mi North 5.8 mph - N/A   Haze
9:52 AM 36.0 °F - 30.9 °F 82% 29.75 in 6.0 mi Calm Calm - N/A   Haze
10:52 AM 36.0 °F 33.3 °F 30.9 °F 82% 29.74 in 7.0 mi North 3.5 mph - N/A   Overcast
10:59 AM 35.6 °F - 30.2 °F 81% 29.72 in 7.0 mi Calm Calm - N/A   Overcast
11:02 AM 35.6 °F - 30.2 °F 81% 29.72 in 7.0 mi Calm Calm - N/A   Overcast
11:52 AM 36.0 °F 32.1 °F 30.9 °F 82% 29.71 in 6.0 mi NW 4.6 mph - N/A   Haze
11:59 AM 35.6 °F 31.7 °F 32.0 °F 87% 29.70 in 6.0 mi WNW 4.6 mph - N/A   Overcast
12:52 PM 36.0 °F 33.3 °F 32.0 °F 86% 29.70 in 6.0 mi NW 3.5 mph - N/A   Overcast
1:05 PM 35.6 °F 31.7 °F 32.0 °F 87% 29.68 in 6.0 mi WNW 4.6 mph - N/A   Overcast
1:40 PM 35.6 °F 29.9 °F 32.0 °F 87% 29.67 in 5.0 mi NNW 6.9 mph - N/A   Overcast
1:52 PM 36.0 °F 30.3 °F 30.9 °F 82% 29.68 in 5.0 mi NNW 6.9 mph - N/A   Haze
2:52 PM 36.0 °F 29.6 °F 30.9 °F 82% 29.69 in 6.0 mi NW 8.1 mph - N/A   Haze
3:52 PM 35.1 °F 29.3 °F 30.0 °F 82% 29.69 in 7.0 mi NNW 6.9 mph - N/A   Overcast
6:52 PM 30.0 °F 24.1 °F 28.0 °F 92% 29.71 in 8.0 mi NNW 5.8 mph - N/A   Clear
7:52 PM 30.9 °F 27.5 °F 28.9 °F 92% 29.72 in 8.0 mi NNW 3.5 mph - N/A   Overcast
8:52 PM 30.9 °F 27.5 °F 28.0 °F 89% 29.74 in 7.0 mi NW 3.5 mph - N/A   Mostly Cloudy
9:27 PM 30.2 °F 25.4 °F 28.4 °F 93% 29.73 in 6.0 mi NW 4.6 mph - N/A   Overcast
9:52 PM 30.9 °F 26.2 °F 28.9 °F 92% 29.75 in 7.0 mi NW 4.6 mph - N/A   Overcast
10:52 PM 30.0 °F - 28.0 °F 92% 29.76 in 6.0 mi Calm Calm - N/A   Overcast
11:52 PM 30.0 °F 26.5 °F 28.9 °F 96% 29.76 in 6.0 mi NW 3.5 mph - N/A   Overcast